Sidney, NE

3:28 AM MDT on July 25, 2016 (GMT -0600)
Sidney Municipal

Weather History for KSNY - December, 2013

Change the Weather History Date:

Thursday, December 5, 2013

  Actual Average Record
Temperature  
Mean Temperature 2 °F 30 °F  
Max Temperature 11 °F 42 °F 71 °F (1980)
Min Temperature -8 °F 17 °F -14 °F (1972)
Degree Days  
Heating Degree Days 63 35  
Month to date heating degree days 193 173  
Since 1 July heating degree days 1685 1595  
Cooling Degree Days 0 0  
Month to date cooling degree days 0 0  
Year to date cooling degree days 918 830  
Moisture  
Dew Point -8 °F    
Average Humidity 64    
Maximum Humidity 75    
Minimum Humidity 52    
Precipitation  
Precipitation 0.00 in 0.02 in 0.25 in (1992)
Month to date precipitation T 0.10  
Year to date precipitation 16.92 18.10  
Sea Level Pressure  
Sea Level Pressure 30.38 in    
Wind  
Wind Speed 7 mph (NNW)    
Max Wind Speed 17 mph    
Max Gust Speed 21 mph    
Visibility 10 miles    
Events      
T = Trace of Precipitation, MM = Missing Value Source: NWS Daily Summary

Daily Weather History Graph

Daily Weather History Graph

Search for Another Location

Airport or City:

Trip Planner

Search our weather history database for the weather conditions in past years. The results will help you decide how hot, cold, wet, or windy it might be!

Date:

Astronomy

Dec. 05, 2013 Rise Set
Actual Time 7:01 AM MST 4:23 PM MST
Civil Twilight 6:31 AM MST 4:54 PM MST
Nautical Twilight 5:56 AM MST 5:28 PM MST
Astronomical Twilight 5:23 AM MST 6:01 PM MST
Moon 9:23 AM MST (12/5) 7:47 PM MST (12/5)
Length of Visible Light 10h 23m
Length of Day
9h 21m
Waxing Crescent, 11% of the Moon is Illuminated
Dec 5
Waxing Crescent
Dec 9
First Quarter
Dec 17
Full
Dec 25
Last Quarter
Jan 1
New

Hourly Weather History & Observations

Time (MST) Temp. Windchill Dew Point Humidity Pressure Visibility Wind Dir Wind Speed Gust Speed Precip Events Conditions
12:53 AM -4.0 °F -20.2 °F -11.9 °F 69% 30.34 in 10.0 mi NW 9.2 mph - N/A   Clear
1:53 AM -4.0 °F -21.2 °F -11.9 °F 69% 30.35 in 10.0 mi NW 10.4 mph - N/A   Clear
2:53 AM -5.1 °F -20.4 °F -11.9 °F 72% 30.35 in 10.0 mi WNW 8.1 mph - N/A   Clear
3:53 AM -5.1 °F -23.5 °F -13.0 °F 69% 30.37 in 10.0 mi WNW 11.5 mph - N/A   Clear
4:53 AM -6.0 °F -26.3 °F -13.0 °F 72% 30.37 in 10.0 mi WNW 13.8 mph - N/A   Clear
5:53 AM -6.0 °F -23.6 °F -13.0 °F 72% 30.38 in 10.0 mi NW 10.4 mph - N/A   Clear
6:53 AM -8.0 °F -28.8 °F -14.1 °F 75% 30.38 in 10.0 mi NW 13.8 mph - N/A   Clear
7:53 AM -2.9 °F -15.0 °F -11.0 °F 68% 30.38 in 10.0 mi NW 5.8 mph - N/A   Clear
8:53 AM 1.0 °F -12.9 °F -9.0 °F 63% 30.40 in 10.0 mi NNW 8.1 mph - N/A   Clear
9:53 AM 5.0 °F - -5.1 °F 63% 30.40 in 10.0 mi Calm Calm - N/A   Clear
10:53 AM 6.1 °F -4.3 °F -4.0 °F 63% 30.40 in 10.0 mi South 5.8 mph - N/A   Clear
11:53 AM 10.0 °F -3.7 °F -4.0 °F 53% 30.33 in 10.0 mi NE 10.4 mph - N/A   Clear
12:53 PM 10.9 °F -1.8 °F -2.9 °F 54% 30.32 in 10.0 mi NNE 9.2 mph - N/A   Clear
1:53 PM 10.9 °F -0.8 °F -4.0 °F 51% 30.30 in 10.0 mi NE 8.1 mph - N/A   Clear
2:53 PM 9.0 °F -3.2 °F -5.1 °F 53% 30.33 in 10.0 mi NNE 8.1 mph - N/A   Mostly Cloudy
3:53 PM 7.0 °F -3.3 °F -5.1 °F 58% 30.37 in 10.0 mi NE 5.8 mph - N/A   Overcast
4:53 PM 6.1 °F -5.6 °F -7.1 °F 55% 30.39 in 10.0 mi NE 6.9 mph - N/A   Overcast
5:53 PM 5.0 °F -5.6 °F -6.0 °F 61% 30.41 in 10.0 mi NNE 5.8 mph - N/A   Overcast
6:53 PM 1.9 °F -9.2 °F -6.0 °F 69% 30.44 in 10.0 mi NNE 5.8 mph - N/A   Mostly Cloudy
7:53 PM -0.9 °F -8.9 °F -8.0 °F 72% 30.45 in 10.0 mi NNW 3.5 mph - N/A   Mostly Cloudy
8:53 PM -0.0 °F -9.9 °F -7.1 °F 72% 30.43 in 10.0 mi NW 4.6 mph - N/A   Overcast
9:53 PM 1.9 °F -9.2 °F -6.0 °F 69% 30.43 in 10.0 mi North 5.8 mph - N/A   Overcast
10:53 PM 1.9 °F -7.6 °F -6.0 °F 69% 30.44 in 10.0 mi NNW 4.6 mph - N/A   Overcast
11:53 PM 1.0 °F - -5.1 °F 75% 30.43 in 10.0 mi Calm Calm - N/A   Overcast